[[{"header":{"parameterUnit":"m.s-1","parameterCategory":1,"la1":30.2991,"la2":30.254,"lo1":-89.0895,"lo2":-89.0444,"dy":0.0017,"dx":0.0017,"nx":28,"ny":28,"refTime":"2025-06-04T03:00:00:Z","depth":0,"parameterNumber":2,"parameterNumberName":"U-component_of_WINDS"},"data":[0,0,0,0,0,0,0,0,0,0,0,0,0,0,0,0,0,0,0,0,0,0,0,0,0,0,0,0,0,0,0,0,0,0,0,0,0,0,0,0,0,0,0,0,0,0,0,0,0,0,0,0,0,0,0,0,0,0,-2.2161,-2.2162,0,-2.227,-2.2271,-2.2273,-2.2328,-2.2328,-2.2328,-2.2328,-2.2435,-2.2438,-2.2441,0,0,0,0,0,0,0,0,0,0,0,0,0,-2.1995,-2.1998,-2.2161,-2.2162,-2.2164,-2.227,-2.2271,-2.2273,-2.2328,-2.2328,-2.2328,-2.2328,-2.2435,-2.2438,-2.2441,0,0,0,0,0,0,0,0,0,0,0,0,0,-2.2082,-2.1999,-2.2161,-2.2204,-2.2209,-2.227,-2.2271,-2.2273,-2.2328,-2.2328,-2.2328,-2.2328,-2.2433,-2.2438,-2.2442,-2.2467,0,0,-2.2455,-2.2457,0,0,0,0,0,0,0,0,-2.2077,-2.2088,-2.2196,-2.2201,-2.2207,-2.2285,-2.2253,-2.2338,-2.2328,-2.2282,-2.2328,-2.2328,-2.2385,-2.2393,-2.2414,-2.2472,-2.2476,-2.2455,-2.2458,-2.2459,-2.2461,0,0,0,0,0,0,0,-2.2071,-2.2084,-2.2204,-2.2198,-2.2204,-2.2216,-2.2229,-2.2269,-2.2332,-2.2286,-2.2291,-2.2303,-2.2388,-2.2409,-2.2417,-2.2478,-2.2455,-2.2459,-2.2461,-2.2463,-2.2561,-2.2561,0,0,0,0,0,0,-2.2058,-2.2078,-2.22,-2.2207,-2.2141,-2.2219,-2.2233,-2.226,-2.2332,-2.2343,-2.2303,-2.2305,-2.2402,-2.2412,-2.2421,-2.2455,-2.2459,-2.2463,-2.2466,-2.2561,-2.2561,-2.2561,0,0,0,0,0,0,-2.2055,-2.2069,-2.2196,-2.2144,-2.2161,-2.2222,-2.2252,-2.2262,-2.2284,-2.2344,-2.2355,-2.2313,-2.2403,-2.2415,-2.2455,-2.2459,-2.2465,-2.2469,-2.2561,-2.2561,-2.2561,-2.2522,0,0,0,0,0,0,-2.205,-2.2067,-2.2078,-2.2144,-2.2164,-2.223,-2.2252,-2.2264,-2.2291,-2.2295,-2.2357,-2.2367,-2.2404,-2.2448,-2.2459,-2.2465,-2.2472,-2.2561,-2.2561,-2.2561,-2.2524,-2.2521,-2.2519,0,0,0,0,0,-2.2044,-2.2062,-2.2079,-2.2093,-2.2179,-2.223,-2.2241,-2.2284,-2.2291,-2.2302,-2.2341,-2.2365,-2.2457,-2.2452,-2.2465,-2.2472,-2.2561,-2.2561,-2.2561,-2.2525,-2.2522,-2.2519,0,0,0,0,0,0,-2.1994,-2.2072,-2.2091,-2.2131,-2.2174,-2.2239,-2.2255,-2.2279,-2.2319,-2.2321,-2.2371,-2.2384,-2.242,-2.245,-2.2443,-2.2499,-2.2511,-2.2514,-2.2479,-2.2477,-2.2474,-2.2466,-2.2476,0,0,0,0,0,-2.1988,-2.2024,-2.209,-2.2119,-2.2139,-2.2193,-2.2217,-2.2246,-2.2291,-2.2309,-2.2351,-2.2393,-2.2432,-2.2456,-2.2494,-2.2528,-2.2542,-2.2539,-2.2537,-2.2534,-2.2536,-2.2556,-2.2556,-2.2562,-2.2562,-2.2562,0,0,-2.1976,-2.2023,-2.2042,-2.211,-2.2147,-2.2182,-2.2208,-2.2244,-2.227,-2.2314,-2.2356,-2.2388,-2.2438,-2.2475,-2.2493,-2.2501,-2.2538,-2.2535,-2.2533,-2.2536,-2.2556,-2.2556,-2.2555,-2.2562,-2.2562,-2.2562,0,0,-2.1972,-2.2011,-2.204,-2.2076,-2.2131,-2.2167,-2.2173,-2.2235,-2.2258,-2.2301,-2.2335,-2.2366,-2.2431,-2.2465,-2.2491,-2.2499,-2.2522,-2.251,-2.2498,-2.2517,-2.2516,-2.2516,-2.2519,-2.252,-2.2511,-2.2511,-2.2511,0,-2.1949,-2.2005,-2.2051,-2.2086,-2.2114,-2.2157,-2.2186,-2.2218,-2.2282,-2.23,-2.2308,-2.239,-2.2427,-2.2473,-2.2475,-2.2494,-2.2503,-2.2503,-2.2513,-2.2513,-2.2514,-2.2517,-2.2518,-2.2509,-2.251,-2.251,-2.251,0,-2.1974,-2.2012,-2.2028,-2.2091,-2.2121,-2.2152,-2.2202,-2.2227,-2.2253,-2.2287,-2.2329,-2.2375,-2.2423,-2.2436,-2.2461,-2.2485,-2.2488,-2.2504,-2.2517,-2.2511,-2.2514,-2.2516,-2.2507,-2.2507,-2.2508,-2.2508,0,0,-2.1942,-2.203,-2.2035,-2.2064,-2.2128,-2.2157,-2.219,-2.2239,-2.2259,-2.2301,-2.2329,-2.2383,-2.2398,-2.2427,-2.2457,-2.2473,-2.2477,-2.2487,-2.2489,-2.2483,-2.2505,-2.2494,-2.2494,-2.2492,-2.2493,-2.2493,-2.2501,0,-2.1947,-2.2009,-2.2051,-2.2097,-2.2132,-2.2173,-2.2201,-2.2242,-2.2275,-2.2308,-2.2344,-2.2382,-2.2398,-2.2416,-2.2434,-2.2472,-2.2482,-2.2472,-2.2518,-2.2519,-2.2505,-2.2496,-2.2484,-2.249,-2.2503,-2.2503,-2.2504,0,-2.1961,-2.2004,-2.2053,-2.2113,-2.2129,-2.2154,-2.2202,-2.2234,-2.2281,-2.2303,-2.2336,-2.2366,-2.2401,-2.2411,-2.2459,-2.2452,-2.2473,-2.2494,-2.2496,-2.2502,-2.2511,-2.2502,-2.2493,-2.2493,-2.2506,-2.2506,-2.2506,0,-2.1933,-2.2002,-2.2041,-2.2064,-2.2135,-2.2151,-2.2181,-2.2229,-2.2255,-2.2296,-2.2314,-2.2358,-2.2382,-2.2415,-2.2456,-2.2459,-2.25,-2.2513,-2.2519,-2.2518,-2.2526,-2.2525,-2.252,-2.2539,-2.2539,-2.2539,-2.2539,0,-2.1934,-2.1962,-2.2029,-2.2053,-2.2085,-2.2133,-2.2163,-2.2196,-2.2238,-2.2268,-2.2305,-2.2332,-2.2385,-2.2418,-2.245,-2.2485,-2.2495,-2.2514,-2.2522,-2.2511,-2.2508,-2.2525,-2.2526,-2.254,-2.254,-2.254,-2.2539,0,-2.1908,-2.1954,-2.1999,-2.2062,-2.2079,-2.21,-2.2154,-2.2177,-2.2212,-2.2249,-2.226,-2.2314,-2.2355,-2.2399,-2.2454,-2.2476,-2.2509,-2.2521,-2.2494,-2.2499,-2.2502,-2.2501,-2.2508,-2.2511,-2.2528,-2.2527,-2.2527,0,-2.1906,-2.1929,-2.1995,-2.2018,-2.2048,-2.2084,-2.2112,-2.2159,-2.2186,-2.2241,-2.2258,-2.2302,-2.234,-2.2402,-2.2446,-2.2488,-2.2501,-2.25,-2.2508,-2.2495,-2.2501,-2.2499,-2.2502,-2.2498,-2.2498,-2.2497,-2.2497,0,-2.1897,-2.1919,-2.1958,-2.2004,-2.2036,-2.2075,-2.2115,-2.2131,-2.2186,-2.2214,-2.2257,-2.2286,-2.2343,-2.2386,-2.2434,-2.2463,-2.2489,-2.2494,-2.2498,-2.2487,-2.247,-2.2479,-2.2488,-2.2494,-2.2494,-2.2495,-2.2495,-2.2495,-2.1883,-2.1905,-2.1956,-2.1997,-2.2033,-2.2069,-2.2095,-2.2133,-2.217,-2.222,-2.2246,-2.2288,-2.2334,-2.2401,-2.243,-2.2463,-2.2471,-2.2476,-2.2478,-2.2478,-2.2475,-2.2465,-2.2472,-2.2472,-2.2472,-2.2472,-2.2472,0,-2.1876,-2.1911,-2.1949,-2.2004,-2.2036,-2.2059,-2.2104,-2.213,-2.2167,-2.2209,-2.2245,-2.2294,-2.2336,-2.2382,-2.2427,-2.2444,-2.2457,-2.2454,-2.2453,-2.246,-2.2466,-2.2458,-2.2443,-2.2443,-2.2443,-2.2443,-2.2443,-2.2443,-2.1877,-2.1915,-2.1943,-2.1999,-2.2033,-2.2076,-2.21,-2.2133,-2.2166,-2.222,-2.2255,-2.2285,-2.2329,-2.2377,-2.2415,-2.2428,-2.2443,-2.2436,-2.2452,-2.2457,-2.2459,-2.2461,-2.2455,-2.2439,-2.2439,-2.2443,-2.2443,-2.2443]},{"header":{"parameterUnit":"m.s-1","parameterCategory":1,"la1":30.2991,"la2":30.254,"lo1":-89.0895,"lo2":-89.0444,"dy":0.0017,"dx":0.0017,"nx":28,"ny":28,"refTime":"2025-06-04T03:00:00:Z","depth":0,"parameterNumber":3,"parameterNumberName":"V-component_of_WINDS"},"data":[0,0,0,0,0,0,0,0,0,0,0,0,0,0,0,0,0,0,0,0,0,0,0,0,0,0,0,0,0,0,0,0,0,0,0,0,0,0,0,0,0,0,0,0,0,0,0,0,0,0,0,0,0,0,0,0,0,0,1.5878,1.5879,0,1.6034,1.6036,1.6038,1.6067,1.6066,1.6065,1.6064,1.6223,1.6228,1.6234,0,0,0,0,0,0,0,0,0,0,0,0,0,1.5605,1.5609,1.5878,1.588,1.5882,1.6034,1.6036,1.6038,1.6068,1.6066,1.6065,1.6063,1.6221,1.6228,1.6234,0,0,0,0,0,0,0,0,0,0,0,0,0,1.5738,1.5611,1.5877,1.5915,1.592,1.6034,1.6036,1.6039,1.6068,1.6066,1.6064,1.6062,1.6219,1.6227,1.6235,1.6323,0,0,1.626,1.6263,0,0,0,0,0,0,0,0,1.5731,1.5748,1.5907,1.5912,1.5918,1.6029,1.5998,1.6134,1.6068,1.6012,1.6064,1.6062,1.616,1.6173,1.6206,1.633,1.6337,1.6261,1.6265,1.6269,1.6271,0,0,0,0,0,0,0,1.5721,1.5742,1.594,1.5909,1.5916,1.5924,1.5941,1.6024,1.6094,1.6016,1.6019,1.6037,1.6163,1.6198,1.621,1.6339,1.626,1.6268,1.6273,1.6276,1.6544,1.6547,0,0,0,0,0,0,1.5706,1.5734,1.5935,1.5944,1.5818,1.593,1.5949,1.5996,1.6094,1.6107,1.6039,1.6038,1.6186,1.6201,1.6216,1.6326,1.6269,1.6276,1.6281,1.6542,1.6545,1.6547,0,0,0,0,0,0,1.57,1.5723,1.5928,1.584,1.5867,1.5937,1.5989,1.6,1.6035,1.611,1.6123,1.6062,1.6185,1.6205,1.6296,1.6332,1.628,1.6288,1.654,1.6543,1.6546,1.6545,0,0,0,0,0,0,1.5692,1.5721,1.5754,1.584,1.5871,1.6006,1.5991,1.6004,1.6049,1.605,1.6136,1.6148,1.6185,1.6284,1.6304,1.6342,1.6294,1.6537,1.6541,1.6545,1.6543,1.6548,1.6553,0,0,0,0,0,1.5682,1.5747,1.5756,1.578,1.5915,1.6008,1.6025,1.6066,1.6052,1.6087,1.6135,1.6146,1.6325,1.6293,1.6316,1.6357,1.6535,1.654,1.6545,1.654,1.6547,1.6553,0,0,0,0,0,0,1.5663,1.5759,1.577,1.5865,1.5928,1.6012,1.6057,1.6072,1.614,1.6138,1.6185,1.6205,1.6294,1.6335,1.6298,1.6448,1.6429,1.6439,1.6417,1.6425,1.643,1.6418,1.6301,0,0,0,0,0,1.567,1.5737,1.5818,1.5894,1.5926,1.5986,1.6028,1.6054,1.6121,1.6148,1.6203,1.6267,1.6338,1.6384,1.6453,1.6549,1.6569,1.6589,1.6594,1.6598,1.6606,1.6661,1.6671,1.6564,1.6564,1.6564,0,0,1.5685,1.5746,1.5785,1.5892,1.5944,1.6013,1.6008,1.6081,1.6133,1.6159,1.6249,1.6292,1.6367,1.6461,1.6506,1.6498,1.664,1.6605,1.6607,1.6613,1.6667,1.6677,1.6686,1.6568,1.6567,1.6567,0,0,1.5747,1.58,1.587,1.5923,1.6002,1.6042,1.6059,1.6142,1.6171,1.6263,1.6284,1.6347,1.6468,1.6521,1.6564,1.6649,1.6662,1.6671,1.6698,1.6751,1.676,1.6767,1.6798,1.6809,1.6678,1.6678,1.6678,0,1.5756,1.5861,1.5904,1.5977,1.6024,1.6052,1.6123,1.6172,1.627,1.6301,1.6292,1.6446,1.6498,1.6606,1.6627,1.6661,1.6682,1.666,1.6755,1.6763,1.6771,1.6801,1.6812,1.6679,1.6679,1.6679,1.6679,0,1.5868,1.594,1.5987,1.6082,1.6134,1.6205,1.626,1.6308,1.6331,1.6372,1.6466,1.653,1.6614,1.6641,1.6664,1.6753,1.6746,1.6745,1.6727,1.6781,1.681,1.6822,1.668,1.668,1.6679,1.6679,0,0,1.5921,1.604,1.6056,1.61,1.619,1.6247,1.6321,1.6404,1.6444,1.6511,1.6574,1.6677,1.6678,1.6726,1.6755,1.6802,1.6866,1.6796,1.6798,1.6806,1.697,1.6969,1.6982,1.6875,1.6878,1.688,1.6963,0,1.5994,1.6126,1.6169,1.6279,1.6347,1.6376,1.644,1.6503,1.6544,1.6608,1.6654,1.6726,1.6721,1.6751,1.6798,1.6848,1.6899,1.6843,1.6935,1.6937,1.6914,1.6997,1.6996,1.7072,1.6975,1.6977,1.6978,0,1.6097,1.6166,1.6283,1.6367,1.6397,1.6454,1.6534,1.6595,1.6667,1.6694,1.6749,1.6775,1.6853,1.6832,1.6941,1.6902,1.6942,1.6973,1.6977,1.6986,1.696,1.7008,1.7097,1.7108,1.6996,1.6995,1.6994,0,1.6124,1.6247,1.6333,1.637,1.6469,1.6509,1.6552,1.6622,1.667,1.674,1.6771,1.6849,1.6892,1.6952,1.6999,1.6978,1.7104,1.7086,1.7129,1.7128,1.7153,1.7151,1.7249,1.718,1.718,1.718,1.7179,0,1.6201,1.6272,1.6347,1.64,1.648,1.6529,1.6608,1.6652,1.6715,1.6778,1.6808,1.6866,1.6924,1.699,1.7027,1.7113,1.7132,1.7156,1.7165,1.7153,1.715,1.718,1.7175,1.7183,1.7182,1.7181,1.7181,0,1.6244,1.6298,1.6394,1.6481,1.6504,1.6559,1.6634,1.6687,1.673,1.6809,1.6831,1.6898,1.6978,1.7031,1.7132,1.7157,1.7251,1.7258,1.7226,1.723,1.727,1.7266,1.7391,1.741,1.7328,1.7328,1.7329,0,1.629,1.6345,1.6438,1.6482,1.6526,1.6597,1.6646,1.6697,1.6746,1.6834,1.6877,1.6958,1.7026,1.7153,1.7211,1.7289,1.7299,1.7338,1.7311,1.7298,1.73,1.7296,1.7302,1.7341,1.7342,1.7343,1.7343,0,1.6365,1.6389,1.6458,1.6538,1.6595,1.666,1.6725,1.676,1.6822,1.6877,1.6959,1.7012,1.7117,1.7198,1.7282,1.7327,1.7346,1.7351,1.7365,1.7353,1.7333,1.7345,1.7237,1.7348,1.7347,1.7347,1.7347,1.7347,1.6411,1.6461,1.6535,1.6612,1.6667,1.6727,1.6781,1.6832,1.6902,1.6991,1.7017,1.7103,1.7175,1.7291,1.7337,1.7405,1.7401,1.7421,1.7427,1.7431,1.7431,1.7322,1.7421,1.7421,1.7421,1.7421,1.7421,0,1.6487,1.6536,1.6607,1.6697,1.6758,1.6771,1.6845,1.6895,1.697,1.7036,1.7103,1.7198,1.7278,1.7343,1.7425,1.7467,1.7478,1.7487,1.7484,1.7495,1.743,1.741,1.7477,1.7477,1.7477,1.7477,1.7477,1.7477,1.6534,1.6621,1.6654,1.6769,1.6818,1.6903,1.6943,1.7,1.7053,1.7158,1.7224,1.7267,1.7334,1.7421,1.7495,1.7512,1.7541,1.7548,1.7567,1.7505,1.7499,1.7493,1.7474,1.7554,1.7554,1.7627,1.7627,1.7628]}]]